[Date Prev][Date Next][Thread Prev][Thread Next] - [Date Index][Thread Index][Author Index]

2 Line ISS Keps 6-24



ISS
1 25544U 98067A   06174.96810201  .00004997  00000-0  35802-4 0  1662
2 25544 051.6290 152.5531 0010163 000.3652 098.4856 15.75823516434233
----
Via the sarex mailing list at AMSAT.ORG courtesy of AMSAT-NA.
To unsubscribe, send "unsubscribe sarex" to Majordomo@amsat.org



AMSAT Top AMSAT Home